Time,TemperatureF,DewpointF,PressureIn,WindDirection,WindDirectionDegrees,WindSpeedMPH,WindSpeedGustMPH,Humidity,HourlyPrecipIn,Conditions,Clouds,dailyrainin,SoftwareType,DateUTC
2013-02-27 00:02:00,30.0,-99.9,-100.00,NE,49,11.0,17.0,-999,-99.99,,,-99.99,,2013-02-27 05:02:00,
2013-02-27 00:12:00,30.0,-99.9,-100.00,NE,49,11.0,17.0,-999,-99.99,,,-99.99,,2013-02-27 05:12:00,
2013-02-27 00:22:00,30.0,-99.9,-100.00,NE,49,11.0,17.0,-999,-99.99,,,-99.99,,2013-02-27 05:22:00,
2013-02-27 00:32:00,30.0,-99.9,-100.00,NE,49,11.0,17.0,-999,-99.99,,,-99.99,,2013-02-27 05:32:00,
2013-02-27 00:52:00,30.0,-99.9,-100.00,NE,34,15.0,29.0,-999,-99.99,,,-99.99,,2013-02-27 05:52:00,
2013-02-27 01:02:00,29.0,-99.9,-100.00,NE,36,11.0,24.0,-999,-99.99,,,-99.99,,2013-02-27 06:02:00,
2013-02-27 01:11:00,29.0,-99.9,-100.00,NE,36,11.0,24.0,-999,-99.99,,,-99.99,,2013-02-27 06:11:00,
2013-02-27 01:22:00,30.0,-99.9,-100.00,NE,34,15.0,29.0,-999,-99.99,,,-99.99,,2013-02-27 06:22:00,
2013-02-27 01:33:00,30.0,-99.9,-100.00,NE,34,15.0,29.0,-999,-99.99,,,-99.99,,2013-02-27 06:33:00,
2013-02-27 01:42:00,30.0,-99.9,-100.00,NE,34,15.0,29.0,-999,-99.99,,,-99.99,,2013-02-27 06:42:00,
2013-02-27 01:52:00,30.0,-99.9,-100.00,NE,34,15.0,29.0,-999,-99.99,,,-99.99,,2013-02-27 06:52:00,
2013-02-27 02:01:00,29.0,-99.9,-100.00,NNE,29,13.0,20.0,-999,-99.99,,,-99.99,,2013-02-27 07:01:00,
2013-02-27 02:12:00,29.0,-99.9,-100.00,NNE,29,13.0,20.0,-999,-99.99,,,-99.99,,2013-02-27 07:12:00,
2013-02-27 02:22:00,29.0,-99.9,-100.00,NNE,25,13.0,24.0,-999,-99.99,,,-99.99,,2013-02-27 07:22:00,
2013-02-27 02:32:00,29.0,-99.9,-100.00,NNE,25,13.0,24.0,-999,-99.99,,,-99.99,,2013-02-27 07:32:00,
2013-02-27 02:40:00,29.0,-99.9,-100.00,NNE,27,12.0,25.0,-999,-99.99,,,-99.99,,2013-02-27 07:40:00,
2013-02-27 02:42:00,29.0,-99.9,-100.00,NNE,25,13.0,24.0,-999,-99.99,,,-99.99,,2013-02-27 07:42:00,
2013-02-27 02:52:00,29.0,-99.9,-100.00,NNE,25,13.0,24.0,-999,-99.99,,,-99.99,,2013-02-27 07:52:00,
2013-02-27 03:01:00,29.0,-99.9,-100.00,NNE,27,12.0,25.0,-999,-99.99,,,-99.99,,2013-02-27 08:01:00,
2013-02-27 03:12:00,29.0,-99.9,-100.00,NNE,27,12.0,25.0,-999,-99.99,,,-99.99,,2013-02-27 08:12:00,
2013-02-27 03:22:00,29.0,-99.9,-100.00,NNE,27,12.0,25.0,-999,-99.99,,,-99.99,,2013-02-27 08:22:00,
2013-02-27 03:32:00,29.0,-99.9,-100.00,NNE,27,12.0,25.0,-999,-99.99,,,-99.99,,2013-02-27 08:32:00,
2013-02-27 03:40:00,29.0,-99.9,-100.00,NNE,25,15.0,21.0,-999,-99.99,,,-99.99,,2013-02-27 08:40:00,
2013-02-27 04:02:00,29.0,-99.9,-100.00,NNE,25,15.0,21.0,-999,-99.99,,,-99.99,,2013-02-27 09:02:00,
2013-02-27 04:12:00,29.0,-99.9,-100.00,NNE,25,15.0,21.0,-999,-99.99,,,-99.99,,2013-02-27 09:12:00,
2013-02-27 04:22:00,29.0,-99.9,-100.00,NNE,25,15.0,21.0,-999,-99.99,,,-99.99,,2013-02-27 09:22:00,
2013-02-27 04:32:00,29.0,-99.9,-100.00,NNE,25,15.0,21.0,-999,-99.99,,,-99.99,,2013-02-27 09:32:00,
2013-02-27 04:40:00,28.0,-99.9,-100.00,NNE,21,12.0,20.0,-999,-99.99,,,-99.99,,2013-02-27 09:40:00,
2013-02-27 05:01:00,28.0,-99.9,-100.00,NNE,21,12.0,20.0,-999,-99.99,,,-99.99,,2013-02-27 10:01:00,
2013-02-27 05:13:00,28.0,-99.9,-100.00,NNE,21,12.0,20.0,-999,-99.99,,,-99.99,,2013-02-27 10:13:00,
2013-02-27 05:22:00,28.0,-99.9,-100.00,NNE,21,12.0,20.0,-999,-99.99,,,-99.99,,2013-02-27 10:22:00,
2013-02-27 05:33:00,28.0,-99.9,-100.00,NNE,21,12.0,20.0,-999,-99.99,,,-99.99,,2013-02-27 10:33:00,
2013-02-27 05:40:00,28.0,-99.9,-100.00,NNE,23,10.0,20.0,-999,-99.99,,,-99.99,,2013-02-27 10:40:00,
2013-02-27 06:03:00,28.0,-99.9,-100.00,NNE,23,10.0,20.0,-999,-99.99,,,-99.99,,2013-02-27 11:03:00,
2013-02-27 06:12:00,28.0,-99.9,-100.00,NNE,23,10.0,20.0,-999,-99.99,,,-99.99,,2013-02-27 11:12:00,
2013-02-27 06:22:00,28.0,-99.9,-100.00,NNE,23,10.0,20.0,-999,-99.99,,,-99.99,,2013-02-27 11:22:00,
2013-02-27 06:32:00,28.0,-99.9,-100.00,NNE,23,10.0,20.0,-999,-99.99,,,-99.99,,2013-02-27 11:32:00,
2013-02-27 06:40:00,28.0,-99.9,-100.00,NNE,18,12.0,20.0,-999,-99.99,,,-99.99,,2013-02-27 11:40:00,
2013-02-27 07:02:00,28.0,-99.9,-100.00,NNE,18,12.0,20.0,-999,-99.99,,,-99.99,,2013-02-27 12:02:00,
2013-02-27 07:13:00,28.0,-99.9,-100.00,NNE,18,12.0,20.0,-999,-99.99,,,-99.99,,2013-02-27 12:13:00,
2013-02-27 07:22:00,28.0,-99.9,-100.00,NNE,18,12.0,20.0,-999,-99.99,,,-99.99,,2013-02-27 12:22:00,
2013-02-27 07:33:00,28.0,-99.9,-100.00,NNE,18,12.0,20.0,-999,-99.99,,,-99.99,,2013-02-27 12:33:00,
2013-02-27 07:40:00,28.0,-99.9,-100.00,NNE,20,12.0,21.0,-999,-99.99,,,-99.99,,2013-02-27 12:40:00,
2013-02-27 08:03:00,28.0,-99.9,-100.00,NNE,20,12.0,21.0,-999,-99.99,,,-99.99,,2013-02-27 13:03:00,
2013-02-27 08:12:00,28.0,-99.9,-100.00,NNE,20,12.0,21.0,-999,-99.99,,,-99.99,,2013-02-27 13:12:00,
2013-02-27 08:22:00,28.0,-99.9,-100.00,NNE,20,12.0,21.0,-999,-99.99,,,-99.99,,2013-02-27 13:22:00,
2013-02-27 08:32:00,28.0,-99.9,-100.00,NNE,20,12.0,21.0,-999,-99.99,,,-99.99,,2013-02-27 13:32:00,
2013-02-27 08:40:00,29.0,-99.9,-100.00,NNE,18,12.0,22.0,-999,-99.99,,,-99.99,,2013-02-27 13:40:00,
2013-02-27 09:02:00,29.0,-99.9,-100.00,NNE,18,12.0,22.0,-999,-99.99,,,-99.99,,2013-02-27 14:02:00,
2013-02-27 09:12:00,29.0,-99.9,-100.00,NNE,18,12.0,22.0,-999,-99.99,,,-99.99,,2013-02-27 14:12:00,
2013-02-27 09:22:00,29.0,-99.9,-100.00,NNE,18,12.0,22.0,-999,-99.99,,,-99.99,,2013-02-27 14:22:00,
2013-02-27 09:32:00,29.0,-99.9,-100.00,NNE,18,12.0,22.0,-999,-99.99,,,-99.99,,2013-02-27 14:32:00,
2013-02-27 09:40:00,30.0,-99.9,-100.00,NNE,31,10.0,25.0,-999,-99.99,,,-99.99,,2013-02-27 14:40:00,
2013-02-27 10:02:00,30.0,-99.9,-100.00,NNE,31,10.0,25.0,-999,-99.99,,,-99.99,,2013-02-27 15:02:00,
2013-02-27 10:13:00,30.0,-99.9,-100.00,NNE,31,10.0,25.0,-999,-99.99,,,-99.99,,2013-02-27 15:13:00,
2013-02-27 10:23:00,30.0,-99.9,-100.00,NNE,31,10.0,25.0,-999,-99.99,,,-99.99,,2013-02-27 15:23:00,
2013-02-27 10:32:00,30.0,-99.9,-100.00,NNE,31,10.0,25.0,-999,-99.99,,,-99.99,,2013-02-27 15:32:00,
2013-02-27 10:40:00,31.0,-99.9,-100.00,NE,35,12.0,22.0,-999,-99.99,,,-99.99,,2013-02-27 15:40:00,
2013-02-27 11:02:00,31.0,-99.9,-100.00,NE,35,12.0,22.0,-999,-99.99,,,-99.99,,2013-02-27 16:02:00,
2013-02-27 11:12:00,31.0,-99.9,-100.00,NE,35,12.0,22.0,-999,-99.99,,,-99.99,,2013-02-27 16:12:00,
2013-02-27 11:22:00,31.0,-99.9,-100.00,NE,35,12.0,22.0,-999,-99.99,,,-99.99,,2013-02-27 16:22:00,
2013-02-27 11:32:00,31.0,-99.9,-100.00,NE,35,12.0,22.0,-999,-99.99,,,-99.99,,2013-02-27 16:32:00,
2013-02-27 11:40:00,32.0,-99.9,-100.00,NNE,23,10.0,22.0,-999,-99.99,,,-99.99,,2013-02-27 16:40:00,
2013-02-27 12:02:00,32.0,-99.9,-100.00,NNE,23,10.0,22.0,-999,-99.99,,,-99.99,,2013-02-27 17:02:00,
2013-02-27 12:11:00,32.0,-99.9,-100.00,NNE,23,10.0,22.0,-999,-99.99,,,-99.99,,2013-02-27 17:11:00,
2013-02-27 12:22:00,32.0,-99.9,-100.00,NNE,23,10.0,22.0,-999,-99.99,,,-99.99,,2013-02-27 17:22:00,
2013-02-27 12:32:00,32.0,-99.9,-100.00,NNE,23,10.0,22.0,-999,-99.99,,,-99.99,,2013-02-27 17:32:00,
2013-02-27 12:40:00,32.0,-99.9,-100.00,NNE,30,12.0,19.0,-999,-99.99,,,-99.99,,2013-02-27 17:40:00,
2013-02-27 13:02:00,32.0,-99.9,-100.00,NNE,30,12.0,19.0,-999,-99.99,,,-99.99,,2013-02-27 18:02:00,
2013-02-27 13:11:00,32.0,-99.9,-100.00,NNE,30,12.0,19.0,-999,-99.99,,,-99.99,,2013-02-27 18:11:00,
2013-02-27 13:22:00,32.0,-99.9,-100.00,NNE,30,12.0,19.0,-999,-99.99,,,-99.99,,2013-02-27 18:22:00,
2013-02-27 13:32:00,32.0,-99.9,-100.00,NNE,30,12.0,19.0,-999,-99.99,,,-99.99,,2013-02-27 18:32:00,
2013-02-27 13:40:00,33.0,-99.9,-100.00,NNE,17,7.0,15.0,-999,-99.99,,,-99.99,,2013-02-27 18:40:00,
2013-02-27 14:02:00,33.0,-99.9,-100.00,NNE,17,7.0,15.0,-999,-99.99,,,-99.99,,2013-02-27 19:02:00,
2013-02-27 14:12:00,33.0,-99.9,-100.00,NNE,17,7.0,15.0,-999,-99.99,,,-99.99,,2013-02-27 19:12:00,
2013-02-27 14:22:00,33.0,-99.9,-100.00,NNE,17,7.0,15.0,-999,-99.99,,,-99.99,,2013-02-27 19:22:00,
2013-02-27 14:33:00,33.0,-99.9,-100.00,NNE,17,7.0,15.0,-999,-99.99,,,-99.99,,2013-02-27 19:33:00,
2013-02-27 14:40:00,33.0,-99.9,-100.00,NNE,19,5.0,13.0,-999,-99.99,,,-99.99,,2013-02-27 19:40:00,
2013-02-27 15:02:00,33.0,-99.9,-100.00,NNE,19,5.0,13.0,-999,-99.99,,,-99.99,,2013-02-27 20:02:00,
2013-02-27 15:12:00,33.0,-99.9,-100.00,NNE,19,5.0,13.0,-999,-99.99,,,-99.99,,2013-02-27 20:12:00,
2013-02-27 15:22:00,33.0,-99.9,-100.00,NNE,19,5.0,13.0,-999,-99.99,,,-99.99,,2013-02-27 20:22:00,
2013-02-27 15:32:00,33.0,-99.9,-100.00,NNE,19,5.0,13.0,-999,-99.99,,,-99.99,,2013-02-27 20:32:00,
2013-02-27 15:40:00,32.0,-99.9,-100.00,North,9,7.0,15.0,-999,-99.99,,,-99.99,,2013-02-27 20:40:00,
2013-02-27 16:02:00,32.0,-99.9,-100.00,North,9,7.0,15.0,-999,-99.99,,,-99.99,,2013-02-27 21:02:00,
2013-02-27 16:12:00,32.0,-99.9,-100.00,North,9,7.0,15.0,-999,-99.99,,,-99.99,,2013-02-27 21:12:00,
2013-02-27 16:22:00,32.0,-99.9,-100.00,North,9,7.0,15.0,-999,-99.99,,,-99.99,,2013-02-27 21:22:00,
2013-02-27 16:32:00,32.0,-99.9,-100.00,North,9,7.0,15.0,-999,-99.99,,,-99.99,,2013-02-27 21:32:00,
2013-02-27 16:40:00,32.0,-99.9,-100.00,North,4,8.0,16.0,-999,-99.99,,,-99.99,,2013-02-27 21:40:00,
2013-02-27 17:02:00,32.0,-99.9,-100.00,North,4,8.0,16.0,-999,-99.99,,,-99.99,,2013-02-27 22:02:00,
2013-02-27 17:12:00,32.0,-99.9,-100.00,North,4,8.0,16.0,-999,-99.99,,,-99.99,,2013-02-27 22:12:00,
2013-02-27 17:22:00,32.0,-99.9,-100.00,North,4,8.0,16.0,-999,-99.99,,,-99.99,,2013-02-27 22:22:00,
2013-02-27 17:32:00,32.0,-99.9,-100.00,North,4,8.0,16.0,-999,-99.99,,,-99.99,,2013-02-27 22:32:00,
2013-02-27 17:40:00,32.0,-99.9,-100.00,North,6,11.0,17.0,-999,-99.99,,,-99.99,,2013-02-27 22:40:00,
2013-02-27 18:02:00,32.0,-99.9,-100.00,North,6,11.0,17.0,-999,-99.99,,,-99.99,,2013-02-27 23:02:00,
2013-02-27 18:12:00,32.0,-99.9,-100.00,North,6,11.0,17.0,-999,-99.99,,,-99.99,,2013-02-27 23:12:00,
2013-02-27 18:22:00,32.0,-99.9,-100.00,North,6,11.0,17.0,-999,-99.99,,,-99.99,,2013-02-27 23:22:00,
2013-02-27 18:32:00,32.0,-99.9,-100.00,North,6,11.0,17.0,-999,-99.99,,,-99.99,,2013-02-27 23:32:00,
2013-02-27 18:40:00,32.0,-99.9,-100.00,NNE,12,8.0,15.0,-999,-99.99,,,-99.99,,2013-02-27 23:40:00,
2013-02-27 19:02:00,32.0,-99.9,-100.00,NNE,12,8.0,15.0,-999,-99.99,,,-99.99,,2013-02-28 00:02:00,
2013-02-27 19:13:00,32.0,-99.9,-100.00,NNE,12,8.0,15.0,-999,-99.99,,,-99.99,,2013-02-28 00:13:00,
2013-02-27 19:22:00,32.0,-99.9,-100.00,NNE,12,8.0,15.0,-999,-99.99,,,-99.99,,2013-02-28 00:22:00,
2013-02-27 19:32:00,32.0,-99.9,-100.00,NNE,12,8.0,15.0,-999,-99.99,,,-99.99,,2013-02-28 00:32:00,
2013-02-27 19:40:00,32.0,-99.9,-100.00,NNE,12,8.0,17.0,-999,-99.99,,,-99.99,,2013-02-28 00:40:00,
2013-02-27 20:01:00,32.0,-99.9,-100.00,NNE,12,8.0,17.0,-999,-99.99,,,-99.99,,2013-02-28 01:01:00,
2013-02-27 20:12:00,32.0,-99.9,-100.00,NNE,12,8.0,17.0,-999,-99.99,,,-99.99,,2013-02-28 01:12:00,
2013-02-27 20:22:00,32.0,-99.9,-100.00,NNE,12,8.0,17.0,-999,-99.99,,,-99.99,,2013-02-28 01:22:00,
2013-02-27 20:32:00,32.0,-99.9,-100.00,NNE,12,8.0,17.0,-999,-99.99,,,-99.99,,2013-02-28 01:32:00,
2013-02-27 20:40:00,32.0,-99.9,-100.00,North,11,11.0,17.0,-999,-99.99,,,-99.99,,2013-02-28 01:40:00,
2013-02-27 21:02:00,32.0,-99.9,-100.00,North,11,11.0,17.0,-999,-99.99,,,-99.99,,2013-02-28 02:02:00,
2013-02-27 21:11:00,32.0,-99.9,-100.00,North,11,11.0,17.0,-999,-99.99,,,-99.99,,2013-02-28 02:11:00,
2013-02-27 21:22:00,32.0,-99.9,-100.00,North,11,11.0,17.0,-999,-99.99,,,-99.99,,2013-02-28 02:22:00,
2013-02-27 21:32:00,32.0,-99.9,-100.00,North,11,11.0,17.0,-999,-99.99,,,-99.99,,2013-02-28 02:32:00,
2013-02-27 21:40:00,32.0,-99.9,-100.00,North,8,10.0,16.0,-999,-99.99,,,-99.99,,2013-02-28 02:40:00,
2013-02-27 22:02:00,32.0,-99.9,-100.00,North,8,10.0,16.0,-999,-99.99,,,-99.99,,2013-02-28 03:02:00,
2013-02-27 22:11:00,32.0,-99.9,-100.00,North,8,10.0,16.0,-999,-99.99,,,-99.99,,2013-02-28 03:11:00,
2013-02-27 22:22:00,32.0,-99.9,-100.00,North,8,10.0,16.0,-999,-99.99,,,-99.99,,2013-02-28 03:22:00,
2013-02-27 22:32:00,32.0,-99.9,-100.00,North,8,10.0,16.0,-999,-99.99,,,-99.99,,2013-02-28 03:32:00,
2013-02-27 22:40:00,32.0,-99.9,-100.00,North,2,8.0,16.0,-999,-99.99,,,-99.99,,2013-02-28 03:40:00,
2013-02-27 23:02:00,32.0,-99.9,-100.00,North,2,8.0,16.0,-999,-99.99,,,-99.99,,2013-02-28 04:02:00,
2013-02-27 23:11:00,32.0,-99.9,-100.00,North,2,8.0,16.0,-999,-99.99,,,-99.99,,2013-02-28 04:11:00,
2013-02-27 23:22:00,32.0,-99.9,-100.00,North,2,8.0,16.0,-999,-99.99,,,-99.99,,2013-02-28 04:22:00,
2013-02-27 23:32:00,32.0,-99.9,-100.00,North,2,8.0,16.0,-999,-99.99,,,-99.99,,2013-02-28 04:32:00,
2013-02-27 23:40:00,32.0,-99.9,-100.00,North,2,6.0,18.0,-999,-99.99,,,-99.99,,2013-02-28 04:40:00,